Tracking 20241 objects as of 26-Jan-2020
HD Live streaming from Space Station
objects crossing your sky now

COSMOS 2251 DEB

Track COSMOS 2251 DEB now!
10-day predictions


NORAD ID: 34616
Int'l Code: 1993-036WM
Perigee: 601.3 km
Apogee: 634.6 km
Inclination: 74.0 °
Period: 96.9 minutes
Semi major axis: 6988 km
RCS: 0.0247 m2 (small)
Launch date: June 16, 1993
Source: Commonwealth of Independent States (former USSR) (CIS)
Launch site: PLESETSK MISSILE AND SPACE COMPLEX (PKMTR)

Note: This is SATELLITE DEBRIS
aabbcc
Your satellite tracking list
Your tracking list is empty




NASA's NSSDC Master Catalog

Two Line Element Set (TLE):
1 34616U 93036WM  20025.42102009 +.00003920 +00000-0 +45149-3 0  9998
2 34616 074.0246 020.5694 0023849 216.6269 293.7828 14.85878737577803
Source of the keplerian elements: AFSPC